Location: Beccas
(43.4309°N, 0.1528°E)
Time: 00:10:37
(UTC+00:00)

Okean 1 Rocket - Pass Details

Date: 15 October 2021
Orbit: 607 x 633 km, 82.5° (Epoch: 26 November)

Event Time Altitude Azimuth Distance (km) Brightness Sun altitude
Rises 18:14:01 0° 191° (SSW) 2,853 6.6 -11.3°
Reaches altitude 10° 18:16:13 10° 193° (SSW) 1,953 5.8 -11.7°
Maximum altitude 18:20:32 74° 279° (W) 638 3.3 -12.5°
Drops below altitude 10° 18:24:53 10° 5° (N) 1,971 5.6 -13.3°
Sets 18:27:08 0° 7° (N) 2,882 6.4 -13.7°
